Location: Unspecified
(40.9447°N, 78.9903°W)
Time: 03:33:01
(UTC-04:00)

OTV 5 (USA 277) - Visible Passes

Search period start: 16 October 2019 00:00
Search period end: 26 October 2019 00:00
Orbit: 310 x 324 km, 54.5° (Epoch: 08 October)

Date Brightness Start Highest point End Pass type
(mag) Time Alt. Az. Time Alt. Az. Time Alt. Az.
16 Oct ? 06:11:23 10° N 06:12:50 13° NNE 06:14:15 10° ENE visible
17 Oct ? 06:25:18 10° NNW 06:27:38 24° NNE 06:29:57 10° E visible
18 Oct ? 06:39:38 10° NW 06:42:18 62° NE 06:45:00 10° ESE visible
19 Oct ? 05:23:15 15° NE 05:23:15 15° NE 05:24:19 10° ENE visible
19 Oct ? 06:54:13 10° WNW 06:56:49 39° SW 06:59:23 10° SSE visible
20 Oct ? 05:37:54 29° ENE 05:37:54 29° ENE 05:39:40 10° ESE visible
21 Oct ? 05:52:40 34° SE 05:52:40 34° SE 05:54:24 10° SE visible
22 Oct ? 06:07:36 15° S 06:07:36 15° S 06:08:22 10° S visible
